• In Netherlands
  • List of Countries
  • For 7 days
  • Water Temperature
  • Satellite Maps
  • Weather Map
  • Weather Widgets
  • user-avatar
    Login

    Hourly Weather Ganja

    Today, 26 May, Friday

    Time Temperature Precipitation Wind Pressure Humidity
    00:00 +14°C° 0 mm 1 mps 726 mmHg 72%
    01:00 +14°C° 0 mm 1 mps 726 mmHg 76%
    02:00 +13°C° 0 mm 1 mps 726 mmHg 81%
    03:00 +13°C° 0 mm 2 mps 726 mmHg 83%
    04:00 +14°C° 0 mm 2 mps 726 mmHg 82%
    05:00 +15°C° 0 mm 1 mps 726 mmHg 81%
    06:00 +16°C° 0 mm 1 mps 726 mmHg 81%
    07:00 +19°C° 0 mm 1 mps 726 mmHg 75%
    08:00 +19°C° 0 mm 2 mps 726 mmHg 70%
    09:00 +21°C° 0 mm 2 mps 726 mmHg 64%
    10:00 +21°C° 0 mm 2 mps 726 mmHg 61%
    11:00 +23°C° 0 mm 2 mps 725 mmHg 58%
    12:00 +24°C° 0 mm 2 mps 725 mmHg 55%
    13:00 +24°C° 0.1 mm 2 mps 724 mmHg 55%
    14:00 +25°C° 0.1 mm 3 mps 724 mmHg 54%
    15:00 +25°C° 0.1 mm 3 mps 724 mmHg 54%
    16:00 +25°C° 0.1 mm 3 mps 724 mmHg 57%
    17:00 +24°C° 0.1 mm 3 mps 723 mmHg 60%
    18:00 +24°C° 0.1 mm 3 mps 723 mmHg 63%
    19:00 +21°C° 0.4 mm 2 mps 724 mmHg 68%
    20:00 +20°C° 0.4 mm 2 mps 724 mmHg 73%
    21:00 +18°C° 0.4 mm 2 mps 724 mmHg 78%
    22:00 +17°C° 0.2 mm 2 mps 724 mmHg 79%
    23:00 +17°C° 0.2 mm 2 mps 724 mmHg 81%

    Tomorrow, 27 May, Saturday

    Time Temperature Precipitation Wind Pressure Humidity
    00:00 +16°C° 0.2 mm 2 mps 724 mmHg 82%
    01:00 +16°C° 0 mm 1 mps 724 mmHg 84%
    02:00 +15°C° 0 mm 1 mps 724 mmHg 86%
    03:00 +15°C° 0 mm 1 mps 724 mmHg 88%
    04:00 +16°C° 0 mm 1 mps 724 mmHg 86%
    05:00 +16°C° 0 mm 1 mps 724 mmHg 84%
    06:00 +18°C° 0 mm 1 mps 724 mmHg 82%
    07:00 +20°C° 0.1 mm 1 mps 724 mmHg 75%
    08:00 +21°C° 0.1 mm 1 mps 723 mmHg 68%
    09:00 +23°C° 0.1 mm 2 mps 723 mmHg 60%
    10:00 +24°C° 0.3 mm 2 mps 723 mmHg 56%
    11:00 +25°C° 0.3 mm 2 mps 722 mmHg 51%
    12:00 +26°C° 0.3 mm 2 mps 722 mmHg 46%
    13:00 +27°C° 0.5 mm 1 mps 722 mmHg 45%
    14:00 +27°C° 0.5 mm 1 mps 721 mmHg 44%
    15:00 +28°C° 0.5 mm 1 mps 721 mmHg 43%
    16:00 +27°C° 0.3 mm 1 mps 721 mmHg 47%
    17:00 +26°C° 0.3 mm 1 mps 721 mmHg 50%
    18:00 +26°C° 0.3 mm 1 mps 721 mmHg 53%
    19:00 +23°C° 0.1 mm 1 mps 721 mmHg 58%
    20:00 +21°C° 0.1 mm 1 mps 721 mmHg 63%
    21:00 +19°C° 0.1 mm 1 mps 722 mmHg 68%
    22:00 +19°C° 0.1 mm 1 mps 722 mmHg 70%
    23:00 +18°C° 0.1 mm 1 mps 722 mmHg 72%

    Day after tomorrow, 28 May, Sunday

    Time Temperature Precipitation Wind Pressure Humidity
    00:00 +18°C° 0.1 mm 1 mps 722 mmHg 73%
    01:00 +18°C° 0 mm 1 mps 722 mmHg 74%
    02:00 +16°C° 0 mm 1 mps 722 mmHg 74%
    03:00 +16°C° 0 mm 1 mps 722 mmHg 74%
    04:00 +17°C° 0 mm 2 mps 722 mmHg 71%
    05:00 +18°C° 0 mm 2 mps 722 mmHg 68%
    06:00 +19°C° 0 mm 2 mps 723 mmHg 64%
    07:00 +21°C° 0 mm 2 mps 723 mmHg 57%
    08:00 +24°C° 0 mm 2 mps 723 mmHg 49%
    09:00 +26°C° 0 mm 2 mps 723 mmHg 42%
    10:00 +27°C° 0 mm 2 mps 723 mmHg 40%
    11:00 +28°C° 0 mm 2 mps 722 mmHg 37%
    12:00 +29°C° 0 mm 2 mps 722 mmHg 35%
    13:00 +29°C° 0 mm 2 mps 722 mmHg 34%
    14:00 +29°C° 0 mm 3 mps 722 mmHg 34%
    15:00 +30°C° 0 mm 3 mps 721 mmHg 33%
    16:00 +29°C° 0 mm 2 mps 721 mmHg 38%
    17:00 +28°C° 0 mm 2 mps 722 mmHg 42%
    18:00 +27°C° 0 mm 2 mps 722 mmHg 46%
    19:00 +24°C° 0.5 mm 2 mps 723 mmHg 52%
    20:00 +22°C° 0.5 mm 1 mps 723 mmHg 58%
    21:00 +20°C° 0.5 mm 1 mps 724 mmHg 64%
    22:00 +19°C° 0.3 mm 1 mps 724 mmHg 66%
    23:00 +18°C° 0.3 mm 1 mps 724 mmHg 69%

    29 May, Monday

    Time Temperature Precipitation Wind Pressure Humidity
    00:00 +18°C° 0.3 mm 1 mps 725 mmHg 71%
    01:00 +16°C° 0 mm 2 mps 725 mmHg 72%
    02:00 +16°C° 0 mm 2 mps 725 mmHg 73%
    03:00 +16°C° 0 mm 2 mps 725 mmHg 74%
    04:00 +16°C° 0 mm 2 mps 726 mmHg 72%
    05:00 +17°C° 0 mm 2 mps 726 mmHg 70%
    06:00 +18°C° 0 mm 2 mps 726 mmHg 67%
    07:00 +20°C° 0 mm 2 mps 727 mmHg 61%
    08:00 +23°C° 0 mm 2 mps 727 mmHg 54%
    09:00 +24°C° 0 mm 2 mps 727 mmHg 47%
    10:00 +25°C° 0 mm 2 mps 727 mmHg 46%
    11:00 +26°C° 0 mm 2 mps 727 mmHg 44%
    12:00 +27°C° 0 mm 2 mps 727 mmHg 43%
    13:00 +27°C° 0.1 mm 3 mps 727 mmHg 43%
    14:00 +28°C° 0.1 mm 4 mps 727 mmHg 44%
    15:00 +28°C° 0.1 mm 5 mps 727 mmHg 45%
    16:00 +27°C° 0.2 mm 5 mps 727 mmHg 50%
    17:00 +24°C° 0.2 mm 6 mps 727 mmHg 55%
    18:00 +23°C° 0.2 mm 7 mps 728 mmHg 60%
    19:00 +21°C° 0.1 mm 7 mps 728 mmHg 65%
    20:00 +18°C° 0.1 mm 7 mps 729 mmHg 69%
    21:00 +16°C° 0.1 mm 6 mps 729 mmHg 74%
    22:00 +15°C° 0 mm 6 mps 729 mmHg 76%
    23:00 +14°C° 0 mm 5 mps 729 mmHg 78%

    30 May, Tuesday

    Time Temperature Precipitation Wind Pressure Humidity
    00:00 +14°C° 0 mm 5 mps 729 mmHg 80%
    01:00 +13°C° 0 mm 4 mps 729 mmHg 81%
    02:00 +13°C° 0 mm 3 mps 729 mmHg 81%
    03:00 +14°C° 0 mm 2 mps 729 mmHg 82%
    04:00 +14°C° 0 mm 2 mps 729 mmHg 80%
    05:00 +15°C° 0 mm 2 mps 728 mmHg 79%
    06:00 +15°C° 0 mm 1 mps 728 mmHg 77%
    07:00 +16°C° 0 mm 1 mps 728 mmHg 73%
    08:00 +19°C° 0 mm 1 mps 727 mmHg 68%
    09:00 +20°C° 0 mm 1 mps 727 mmHg 63%
    10:00 +22°C° 0 mm 1 mps 726 mmHg 58%
    11:00 +23°C° 0 mm 1 mps 726 mmHg 53%
    12:00 +25°C° 0 mm 1 mps 725 mmHg 48%
    13:00 +25°C° 0 mm 1 mps 725 mmHg 47%
    14:00 +26°C° 0 mm 1 mps 724 mmHg 45%
    15:00 +27°C° 0 mm 1 mps 724 mmHg 43%
    16:00 +26°C° 0 mm 1 mps 724 mmHg 46%
    17:00 +26°C° 0 mm 1 mps 724 mmHg 49%
    18:00 +26°C° 0 mm 1 mps 724 mmHg 51%
    19:00 +23°C° 0 mm 1 mps 724 mmHg 58%
    20:00 +21°C° 0 mm 1 mps 724 mmHg 64%
    21:00 +19°C° 0 mm 1 mps 724 mmHg 70%
    22:00 +18°C° 0 mm 1 mps 724 mmHg 72%
    23:00 +18°C° 0 mm 1 mps 724 mmHg 73%

    31 May, Wednesday

    Time Temperature Precipitation Wind Pressure Humidity
    00:00 +16°C° 0 mm 1 mps 724 mmHg 74%
    01:00 +16°C° 0 mm 1 mps 724 mmHg 75%
    02:00 +15°C° 0 mm 1 mps 724 mmHg 76%
    03:00 +15°C° 0 mm 1 mps 724 mmHg 77%
    04:00 +16°C° 0 mm 1 mps 724 mmHg 71%
    05:00 +19°C° 0 mm 1 mps 724 mmHg 66%
    06:00 +19°C° 0 mm 2 mps 724 mmHg 61%
    07:00 +23°C° 0 mm 2 mps 724 mmHg 54%
    08:00 +25°C° 0 mm 2 mps 724 mmHg 47%
    09:00 +27°C° 0 mm 2 mps 724 mmHg 40%
    10:00 +28°C° 0 mm 2 mps 724 mmHg 38%
    11:00 +29°C° 0 mm 2 mps 723 mmHg 36%
    12:00 +30°C° 0 mm 1 mps 723 mmHg 34%
    13:00 +30°C° 0 mm 1 mps 722 mmHg 34%
    14:00 +31°C° 0 mm 2 mps 722 mmHg 34%
    15:00 +31°C° 0 mm 2 mps 722 mmHg 34%
    16:00 +30°C° 0.1 mm 2 mps 722 mmHg 37%
    17:00 +30°C° 0.1 mm 2 mps 722 mmHg 40%
    18:00 +29°C° 0.1 mm 2 mps 722 mmHg 44%
    19:00 +26°C° 0 mm 2 mps 722 mmHg 47%
    20:00 +24°C° 0 mm 2 mps 722 mmHg 51%
    21:00 +21°C° 0 mm 3 mps 722 mmHg 55%
    22:00 +20°C° 0 mm 3 mps 722 mmHg 59%
    23:00 +19°C° 0 mm 2 mps 722 mmHg 63%
    Show more